Skip Page Navigation
NASA JPL Caltech
NASA Logo - Jet Propulsion Laboratory + View the NASA Portal
+ Near-Earth Object (NEO) Program
Search JPL
JPL Home Earth Solar System Stars & Galaxies Technology
JPL Solar System Dynamics
BODIES ORBITS EPHEMERIDES TOOLS PHYSICAL DATA DISCOVERY FAQ SITE MAP
JPL Small-Body Database Browser
Search: [ help ]  
(2004 KH17)
Classification: Aten [NEO, PHA]          SPK-ID: 3182833
Ephemeris | Orbit Diagram | Orbital Elements | Physical Parameters | Close-Approach Data ]

[ hide orbit diagram ]
Orbit Diagram
Note: Make sure you have Java enabled on your browser to see the applet. This applet is provided as a 3D orbit visualization tool. The applet was implemented using 2-body methods, and hence should not be used for determining accurate long-term trajectories (over several years or decades) or planetary encounter circumstances. For accurate long-term ephemerides, please instead use our Horizons system.
Orbit Viewer

Additional Notes: the orbits shown in the applet are color coded. The planets are white lines, and the asteroid/comet is a blue line. The bright white line indicates the portion of the orbit that is above the ecliptic plane, and the darker portion is below the ecliptic plane. Likewise for the asteroid/comet orbit, the light blue indicates the portion above the ecliptic plane, and the dark blue the portion below the ecliptic plane.

Orbit Viewer applet originally written and kindly provided by Osamu Ajiki (AstroArts), and further modified by Ron Baalke (JPL).


Orbital Elements at Epoch 2456400.5 (2013-Apr-18.0) TDB
Reference: JPL 28 (heliocentric ecliptic J2000)
 Element Value Uncertainty (1-sigma)   Units 
e .4987337982730949 6.5259e-07  
a .7119493458261349 2.485e-09 AU
q .3568761444042215 4.6403e-07 AU
i 22.11050403224867 0.00016003 deg
node 79.18183678167411 3.092e-05 deg
peri 340.6932726874509 5.4493e-05 deg
M 127.0878684865126 0.00019334 deg
tp 2456323.040682716536
(2013-Jan-30.54068272)
0.00011799 JED
period 219.4179078942254
0.60
1.1488e-06
3.145e-09
d
yr
n 1.640704733059186 8.5902e-09 deg/d
Q 1.067022547248048 3.7244e-09 AU
  Orbit Determination Parameters
   # obs. used (total)      169  
   data-arc span      2193 days (6.00 yr)  
   first obs. used      2004-05-29  
   last obs. used      2010-05-31  
   planetary ephem.      DE405  
   SB-pert. ephem.      SB405-CPV-2  
   condition code      1  
   fit RMS      .66566  
   data source      ORB  
   producer      Otto Matic  
   solution date      2011-Sep-14 19:56:17  

Additional Information
 Earth MOID = .00340091 AU 
 T_jup = 7.903 
[ show covariance matrix ]

Ephemeris | Orbit Diagram | Orbital Elements | Physical Parameters | Close-Approach Data ]

Physical Parameter Table
Parameter Symbol Value Units Sigma Reference Notes
absolute magnitude H 21.918 mag .5575 28 autocmod 2.5a

[ show close-approach data ]
Ephemeris | Orbit Diagram | Orbital Elements | Physical Parameters | Close-Approach Data ]
ABOUT SSD CREDITS/AWARDS PRIVACY/COPYRIGHT GLOSSARY LINKS
FirstGov 2013-May-23 05:02 UT
(server date/time)  
NASA Home Page
Site Manager:   Donald K. Yeomans
Webmaster  Alan B. Chamberlin